TimeEDT,TemperatureF,Dew PointF,Humidity,Sea Level PressureIn,VisibilityMPH,Wind Direction,Wind SpeedMPH,Gust SpeedMPH,PrecipitationIn,Events,Conditions,WindDirDegrees,DateUTC
12:12 AM,50.0,41.9,74,29.88,10.0,NW,4.6,-,N/A,,Overcast,320,2013-10-17 04:12:00
12:32 AM,50.0,42.3,75,29.88,10.0,WNW,4.6,-,N/A,,Overcast,300,2013-10-17 04:32:00
12:53 AM,50.0,42.1,74,29.88,10.0,NW,5.8,-,N/A,,Overcast,320,2013-10-17 04:53:00
1:13 AM,50.0,41.9,74,29.88,10.0,WNW,6.9,-,N/A,,Overcast,290,2013-10-17 05:13:00
1:33 AM,49.5,41.5,74,29.88,10.0,NW,4.6,-,N/A,,Overcast,310,2013-10-17 05:33:00
1:53 AM,48.9,41.0,74,29.88,10.0,Calm,Calm,-,N/A,,Mostly Cloudy,0,2013-10-17 05:53:00
2:13 AM,46.4,40.5,80,29.88,10.0,Calm,Calm,-,N/A,,Scattered Clouds,0,2013-10-17 06:13:00
2:33 AM,45.0,40.6,85,29.88,10.0,Calm,Calm,-,N/A,,Mostly Cloudy,0,2013-10-17 06:33:00
2:53 AM,45.1,41.0,85,29.87,10.0,Calm,Calm,-,N/A,,Mostly Cloudy,0,2013-10-17 06:53:00
3:14 AM,45.0,42.1,90,29.87,10.0,Calm,Calm,-,N/A,,Overcast,0,2013-10-17 07:14:00
3:34 AM,45.5,42.4,89,29.87,10.0,Calm,Calm,-,N/A,,Overcast,0,2013-10-17 07:34:00
3:54 AM,45.3,42.4,90,29.86,10.0,Calm,Calm,-,N/A,,Overcast,0,2013-10-17 07:54:00
4:14 AM,45.1,42.6,91,29.86,10.0,Calm,Calm,-,N/A,,Overcast,0,2013-10-17 08:14:00
4:34 AM,44.8,42.6,92,29.85,10.0,Calm,Calm,-,N/A,,Overcast,0,2013-10-17 08:34:00
4:54 AM,45.1,43.0,92,29.85,10.0,Calm,Calm,-,N/A,,Overcast,0,2013-10-17 08:54:00
5:14 AM,45.5,43.2,92,29.85,10.0,Calm,Calm,-,N/A,,Overcast,0,2013-10-17 09:14:00
5:34 AM,44.8,42.8,93,29.86,10.0,Calm,Calm,-,N/A,,Overcast,0,2013-10-17 09:34:00
5:54 AM,45.0,43.0,93,29.85,10.0,Calm,Calm,-,N/A,,Overcast,0,2013-10-17 09:54:00
6:14 AM,45.9,43.5,92,29.85,10.0,Calm,Calm,-,N/A,,Overcast,0,2013-10-17 10:14:00
6:34 AM,45.3,42.6,90,29.85,10.0,Calm,Calm,-,N/A,,Overcast,0,2013-10-17 10:34:00
6:54 AM,44.8,42.3,91,29.85,10.0,Calm,Calm,-,N/A,,Overcast,0,2013-10-17 10:54:00
7:14 AM,45.0,43.0,93,29.85,10.0,Calm,Calm,-,N/A,,Overcast,0,2013-10-17 11:14:00
7:35 AM,45.0,43.0,93,29.85,10.0,Calm,Calm,-,N/A,,Overcast,0,2013-10-17 11:35:00
7:55 AM,45.1,43.0,92,29.85,10.0,Calm,Calm,-,N/A,,Overcast,0,2013-10-17 11:55:00
8:15 AM,45.5,43.3,92,29.85,10.0,Calm,Calm,-,N/A,,Overcast,0,2013-10-17 12:15:00
8:35 AM,45.7,43.5,92,29.86,10.0,Calm,Calm,-,N/A,,Overcast,0,2013-10-17 12:35:00
8:55 AM,45.5,43.2,92,29.86,10.0,Calm,Calm,-,N/A,,Overcast,0,2013-10-17 12:55:00
9:15 AM,47.1,42.3,83,29.86,10.0,WNW,6.9,-,N/A,,Overcast,300,2013-10-17 13:15:00
9:35 AM,49.3,39.9,70,29.85,10.0,WNW,6.9,-,N/A,,Overcast,290,2013-10-17 13:35:00
9:56 AM,50.0,39.6,67,29.85,10.0,WNW,3.5,-,N/A,,Overcast,300,2013-10-17 13:56:00
10:16 AM,50.4,39.6,66,29.85,10.0,WNW,3.5,-,N/A,,Overcast,300,2013-10-17 14:16:00
10:36 AM,50.2,38.7,65,29.84,10.0,WNW,3.5,-,N/A,,Overcast,290,2013-10-17 14:36:00
10:56 AM,49.6,38.1,65,29.84,10.0,West,3.5,-,N/A,,Overcast,280,2013-10-17 14:56:00
11:11 AM,49.5,38.3,65,29.84,10.0,Calm,Calm,-,N/A,,Overcast,0,2013-10-17 15:11:00
11:31 AM,49.5,38.1,65,29.84,10.0,NNW,3.5,-,N/A,,Overcast,330,2013-10-17 15:31:00
11:51 AM,49.8,38.7,65,29.83,10.0,Calm,Calm,-,N/A,,Overcast,0,2013-10-17 15:51:00
12:11 PM,49.5,38.7,66,29.82,10.0,Calm,Calm,-,N/A,,Overcast,0,2013-10-17 16:11:00
12:31 PM,49.5,38.8,67,29.82,10.0,Calm,Calm,-,N/A,,Overcast,0,2013-10-17 16:31:00
12:51 PM,49.8,37.8,63,29.82,10.0,Calm,Calm,-,N/A,,Overcast,0,2013-10-17 16:51:00
1:12 PM,50.0,38.1,64,29.81,10.0,Calm,Calm,-,N/A,,Overcast,0,2013-10-17 17:12:00
1:32 PM,49.6,38.1,65,29.80,10.0,Calm,Calm,-,N/A,,Overcast,0,2013-10-17 17:32:00
1:52 PM,49.3,39.0,68,29.80,10.0,SSE,4.6,-,N/A,,Overcast,150,2013-10-17 17:52:00
2:12 PM,49.1,42.1,77,29.79,10.0,SE,4.6,-,N/A,,Overcast,140,2013-10-17 18:12:00
2:32 PM,48.6,42.8,80,29.78,10.0,SE,3.5,-,N/A,,Overcast,130,2013-10-17 18:32:00
2:52 PM,48.4,43.9,84,29.78,10.0,SE,3.5,-,N/A,,Overcast,130,2013-10-17 18:52:00
3:12 PM,49.1,44.1,83,29.77,10.0,ESE,4.6,-,N/A,,Overcast,110,2013-10-17 19:12:00
3:32 PM,49.3,43.2,79,29.77,10.0,ESE,3.5,-,N/A,,Overcast,110,2013-10-17 19:32:00
3:52 PM,49.5,43.3,79,29.76,10.0,Calm,Calm,-,N/A,,Overcast,0,2013-10-17 19:52:00
4:13 PM,50.4,40.8,70,29.76,10.0,West,4.6,-,N/A,,Mostly Cloudy,270,2013-10-17 20:13:00
4:33 PM,50.2,37.9,63,29.76,10.0,West,4.6,-,N/A,,Mostly Cloudy,270,2013-10-17 20:33:00
4:53 PM,50.0,37.9,63,29.75,10.0,WNW,6.9,-,N/A,,Mostly Cloudy,290,2013-10-17 20:53:00
5:13 PM,49.6,38.1,65,29.75,10.0,WNW,3.5,-,N/A,,Overcast,290,2013-10-17 21:13:00
5:33 PM,49.6,37.6,63,29.75,10.0,West,5.8,-,N/A,,Mostly Cloudy,270,2013-10-17 21:33:00
5:53 PM,49.8,37.6,63,29.75,10.0,West,4.6,-,N/A,,Mostly Cloudy,280,2013-10-17 21:53:00
6:13 PM,50.0,37.0,61,29.75,10.0,West,10.4,-,N/A,,Mostly Cloudy,280,2013-10-17 22:13:00
6:33 PM,49.5,36.3,61,29.76,10.0,West,6.9,-,N/A,,Mostly Cloudy,270,2013-10-17 22:33:00
6:54 PM,48.2,35.6,62,29.76,10.0,WNW,4.6,-,N/A,,Scattered Clouds,290,2013-10-17 22:54:00
7:14 PM,47.1,36.0,65,29.76,10.0,Calm,Calm,-,N/A,,Scattered Clouds,0,2013-10-17 23:14:00
7:34 PM,45.7,36.3,70,29.77,10.0,NW,3.5,-,N/A,,Mostly Cloudy,310,2013-10-17 23:34:00
7:54 PM,44.1,36.1,74,29.77,10.0,Calm,Calm,-,N/A,,Mostly Cloudy,0,2013-10-17 23:54:00
8:14 PM,43.3,35.8,75,29.77,10.0,Calm,Calm,-,N/A,,Scattered Clouds,0,2013-10-18 00:14:00
8:34 PM,42.8,37.0,80,29.77,10.0,Calm,Calm,-,N/A,,Mostly Cloudy,0,2013-10-18 00:34:00
8:54 PM,42.1,37.9,85,29.78,10.0,Calm,Calm,-,N/A,,Mostly Cloudy,0,2013-10-18 00:54:00
9:14 PM,42.4,37.0,81,29.78,10.0,Calm,Calm,-,N/A,,Scattered Clouds,0,2013-10-18 01:14:00
9:34 PM,44.6,36.0,72,29.78,10.0,Calm,Calm,-,N/A,,Clear,0,2013-10-18 01:34:00
9:54 PM,46.0,36.0,68,29.79,10.0,NW,3.5,-,N/A,,Scattered Clouds,320,2013-10-18 01:54:00
10:15 PM,43.5,36.1,75,29.78,10.0,Calm,Calm,-,N/A,,Scattered Clouds,0,2013-10-18 02:15:00
10:35 PM,41.2,35.6,81,29.78,10.0,Calm,Calm,-,N/A,,Scattered Clouds,0,2013-10-18 02:35:00
10:55 PM,39.0,36.0,89,29.78,10.0,Calm,Calm,-,N/A,,Scattered Clouds,0,2013-10-18 02:55:00
11:15 PM,39.6,37.0,91,29.78,10.0,Calm,Calm,-,N/A,,Mostly Cloudy,0,2013-10-18 03:15:00
11:35 PM,40.6,38.1,91,29.78,10.0,Calm,Calm,-,N/A,,Mostly Cloudy,0,2013-10-18 03:35:00
11:55 PM,47.5,37.6,69,29.77,10.0,West,4.6,-,N/A,,Mostly Cloudy,280,2013-10-18 03:55:00